Weather Roundup
Issued by NWS Corpus Christi, TX

Home | Current Version | Previous Version | Text Only | Print | Product List | Glossary On
Versions: 1 2 3 4 5 6 7 8 9 10 11 12 13 14 15 16 17 18 19 20 21 22 23 24 25 26 27 28 29 30 31 32 33 34 35 36 37 38 39 40 41 42 43 44 45 46 47 48 49 50
000
ASUS44 KCRP 030010
HRRCRP

SOUTH TEXAS REGIONAL WEATHER ROUNDUP
NATIONAL WEATHER SERVICE CORPUS CHRISTI TX
700 PM CDT SUN AUG 02 2015


TXZ229>244-030100-
...CORPUS CHRISTI AREA OBSERVATIONS...

CITY           SKY/WX    TMP DP  RH WIND       PRES   REMARKS
CORPUS CHRISTI MOSUNNY   90  71  53 SE14      29.84F HX  96
NAS CORPUS CHR SUNNY     86  74  67 SE14      29.85F HX  94
ROCKPORT       SUNNY     88  72  58 SE14      29.84F HX  94
KINGSVILLE NAS MOSUNNY   90  74  59 E13       29.84S HX  99
ALICE          SUNNY     92  73  53 SE17      29.83S HX 100
FALFURRIAS     SUNNY     92  70  47 E10       29.83S HX  97
$$

...VICTORIA AREA OBSERVATIONS...

CITY           SKY/WX    TMP DP  RH WIND       PRES   REMARKS
VICTORIA       SUNNY     91  71  51 S12       29.84S HX  97
BEEVILLE       FAIR      92  71  51 SE10      29.84S HX  98
PLEASANTON     SUNNY     98  56  24 E7        29.83F HX  96
SAN ANTONIO    MOSUNNY   95  59  30 SE9       29.86F HX  94
$$

...LAREDO AREA OBSERVATIONS...

CITY           SKY/WX    TMP DP  RH WIND       PRES   REMARKS
LAREDO         MOSUNNY  100  62  28 E12       29.82F HX 101
COTULLA        MOSUNNY   98  61  29 SE10      29.83F HX  98
DEL RIO        SUNNY     98  60  28 SE10      29.81F HX  98
MCALLEN        MOSUNNY   95  70  44 SE15      29.83F HX 101
HEBBRONVILLE     N/A     95  65  37 E17       29.85R HX  97
$$

...OTHER TEXAS OBSERVATIONS...

CITY           SKY/WX    TMP DP  RH WIND       PRES   REMARKS
BROWNSVILLE    SUNNY     88  72  58 E9        29.85F HX  94
HOUSTON        MOSUNNY   94  61  33 E8        29.84F HX  94
COL. STATION   SUNNY     97  54  23 NE5       29.84F HX  95
AUSTIN         MOSUNNY   96  56  26 E10       29.84F HX  94
WACO           SUNNY     96  53  23 E8        29.85F HX  93
FORT WORTH     MOSUNNY   96  53  23 E7        29.85F HX  93
WICHITA FALLS  SUNNY     90  65  43 SE16      29.86F HX  92
LUBBOCK        PTSUNNY   86  61  42 S16       29.95R
EL PASO        MOSUNNY   94  54  25 VRB5      29.93F HX  92
$$

...MARINE OBSERVATIONS...

STATION/POSITION TIME  SKY/WX   TEMP    WIND        PRES    VSBY  WAVE   SWELL
                                AIR SEA DIR/SP/G                  HT/PER HT/PER
                 (UTC)          (F)     (DEG/KT/KT) (MB)    (MI)  (FT/S) (FT/S)
PORT ARANSAS     0000            84 85  120/ 12/ 13 1011.7F
BUOY 90 E PORT A 2350            85 88  170/  8/ 10 1011.1F         1/ 3
BUOY 45 SE BAFFI 2350            83 85  140/  6/  8 1010.9F         1/ 5
BUOY 200 E PT IS 2350            86 86  210/ 12/ 16 1012.1F         1/ 4
BUOY 15 E GALVES 2350            88 87  130/  8/ 10 1010.6F         1
$$


USA.gov is the U.S. government's official web portal to all federal, state and local government web resources and services.